Home   Weather   Suzhou   Past weeks

Flag for China Past Weather in Suzhou, Jiangsu, China — Yesterday and Last 2 Weeks

Now
75 °F

Light rain. Partly sunny.


Feels Like: 75 °F
Forecast: 66 / 75 °F
Wind: 3 mph from Southeast

Location: Shanghai Hongqiao Airport

Current Time: May 23, 2017 at 1:21:14 pm

Latest Report: May 23, 2017 at 1:00 pm


Visibility: 4 mi

Pressure: 29.74 "Hg

Humidity: 89%

Dew Point: 72 °F

Location of SuzhouLocation

Past Weather in Suzhou — Graph

°F

Suzhou Temperature Yesterday

Maximum temperature yesterday: 84 °F (at 1:30 pm)
Minimum temperature yesterday: 70 °F (at 12:00 am)
Average temperature yesterday: 76 °F

High & Low Weather Summary for the Past Weeks

 TemperatureHumidityPressure
High95 °F (May 11, 3:00 pm)100% (May 9, 2:00 am)30.01 "Hg (May 9, 2:00 am)
Low59 °F (May 8, 12:00 pm)22% (May 10, 3:00 pm)29.71 "Hg (May 13, 4:30 pm)
Average73 °F64%29.87 "Hg
* Reported May 8 12:00 pm — May 23 12:00 pm, Suzhou. Weather by CustomWeather, © 2017

Note: Actual official high and low records may vary slightly from our data, if they occured in-between our weather recording intervals... More about our weather records

Advertising

Suzhou Weather History for the Previous 24 Hours

Scroll right to see more
 ConditionsComfort  
Time TempWeatherWind HumidityBarometerVisibility
12:00 pm
Tue, May 23
75 °FLight rain. Partly sunny.6 mph89%29.74 "HgN/A
11:30 am75 °FLight rain. Partly sunny.6 mph89%29.74 "HgN/A
11:00 am77 °FLight rain. Partly sunny.8 mph79%29.74 "HgN/A
10:30 am77 °FPartly sunny.6 mph79%29.74 "HgN/A
10:00 am77 °FPartly sunny.10 mph79%29.74 "HgN/A
9:00 am75 °FPartly sunny.13 mph83%29.74 "HgN/A
8:30 am75 °FPartly sunny.10 mph83%29.74 "HgN/A
8:00 am75 °FPartly sunny.10 mph83%29.74 "HgN/A
7:30 am73 °FPartly sunny.10 mph89%29.74 "HgN/A
7:00 am73 °FPartly sunny.8 mph83%29.74 "HgN/A
6:30 am73 °FPartly sunny.10 mph83%29.74 "HgN/A
6:00 am73 °FPartly sunny.8 mph83%29.74 "HgN/A
5:30 am73 °FPartly sunny.8 mph83%29.74 "HgN/A
5:00 am73 °FPartly sunny.8 mph83%29.74 "HgN/A
4:00 am72 °FPassing clouds.10 mph88%29.74 "HgN/A
3:30 am72 °FPassing clouds.10 mph88%29.74 "HgN/A
3:00 am72 °FPassing clouds.8 mph88%29.74 "HgN/A
2:30 am72 °FClear.8 mph88%29.74 "Hg10 mi
2:00 am72 °FPassing clouds.10 mph88%29.74 "HgN/A
1:30 am72 °FPassing clouds.10 mph88%29.77 "HgN/A
1:00 am72 °FPassing clouds.10 mph88%29.77 "HgN/A
12:30 am72 °FPassing clouds.8 mph88%29.80 "HgN/A
12:00 am72 °FPassing clouds.10 mph88%29.80 "HgN/A
11:30 pm
Mon, May 22
72 °FPassing clouds.13 mph88%29.80 "HgN/A
11:00 pm73 °FPassing clouds.10 mph83%29.80 "HgN/A
10:30 pm73 °FPassing clouds.10 mph83%29.83 "HgN/A
10:00 pm73 °FPassing clouds.13 mph83%29.83 "HgN/A
9:30 pm73 °FPassing clouds.10 mph83%29.83 "HgN/A
9:00 pm73 °FClear.10 mph83%29.83 "Hg10 mi
8:30 pm73 °FClear.10 mph78%29.80 "Hg10 mi
8:00 pm75 °FClear.10 mph74%29.80 "Hg10 mi
7:30 pm75 °FClear.13 mph74%29.80 "Hg10 mi
7:00 pm77 °FClear.13 mph69%29.80 "Hg10 mi
6:30 pm77 °FSunny.13 mph65%29.80 "Hg10 mi
6:00 pm79 °FPassing clouds.13 mph61%29.77 "HgN/A
5:30 pm81 °FPassing clouds.13 mph54%29.77 "HgN/A
5:00 pm82 °FSunny.13 mph51%29.77 "Hg10 mi
4:30 pm82 °FPassing clouds.13 mph51%29.77 "HgN/A
4:00 pm82 °FSunny.13 mph51%29.77 "Hg10 mi
3:30 pm84 °FPassing clouds.13 mph45%29.77 "HgN/A
3:00 pm84 °FPassing clouds.13 mph45%29.77 "HgN/A
2:30 pm84 °FPassing clouds.15 mph48%29.77 "HgN/A
2:00 pm84 °FScattered clouds.15 mph48%29.80 "HgN/A
1:30 pm84 °FScattered clouds.13 mph48%29.80 "HgN/A
1:00 pm82 °FScattered clouds.13 mph51%29.83 "HgN/A
Weather by CustomWeather, © 2017

See weather overviewHow to use our weather pages